Hauptseite
METAR-TAF:

METAR-TAF

Flughäfen :

Hagerstown, Maryland, Vereinigte Staaten

Breite: 39-42-21N, Länge: 077-43-48W, Höhe: 214 m

Beobachtung

Neuester Wetterbericht von vor 44 Minuten, um 03:53 UTC
Wind 6 kt aus Ost
Temperatur -4°C
Luftfeuchtigkeit 63%
Luftdruck 1018 hPa
Sichtweite: 16.1 km
Himmel klar

METAR: KHGR 210353Z AUTO 10006KT 10SM CLR M04/M10 A3005 RMK AO2 SLP193 T10441100

Zeit: 23:37 (04:37 UTC)


TAF: fehlend

Wetterbeobachtungen und Prognosen von mehr als 4000 Flughäfen (METAR und TAF Bericht).

Die verfügbaren Stationen werden durch gelbe und rote Markierungen auf der Karte dargestellt.

Führen Sie die Maus auf sie, um den Namen der Station zu sehen.

Darauf klicken, um die Beobachtung von Wetterbeobachtungen und Prognosen zu sehen.

Um die Karte zu ändern : klicken Sie auf den grünen Tasten mit einem schwarzen Kreuz Zum Vergrößern, auf den grünen Button mit einem Gedankenstrich zu verkleinern, oder auf die grünen Pfeile für benachbarte Karten.


METAR-TAF: